Logan, UT

8:06 PM MST on December 10, 2019 (GMT -0700)
Logan-Cache

Weather History for KLGU - October, 2019

Change the Weather History Date:

Friday, October 18, 2019

  Actual Average Record
Temperature  
Mean Temperature 42 °F -  
Max Temperature 53 °F 61 °F 77 °F (2003)
Min Temperature 34 °F 32 °F 20 °F (1964)
Degree Days  
Heating Degree Days 22    
Moisture  
Dew Point 32 °F    
Average Humidity 68    
Maximum Humidity 89    
Minimum Humidity 43    
Precipitation  
Precipitation 0.00 in - - ()
Sea Level Pressure  
Sea Level Pressure 29.93 in    
Wind  
Wind Speed 4 mph ()    
Max Wind Speed 9 mph    
Max Gust Speed -    
Visibility 10.0 miles    
Events Snow    
Averages and records for this station are not official NWS values.
T = Trace of Precipitation, MM = Missing Value Source: Averaged Metar Reports

Daily Weather History Graph

Daily Weather History Graph

Search for Another Location

Airport or City:

Astronomy

Oct. 18, 2019 Rise Set
Actual Time 7:42 AM MDT 6:41 PM MDT
Civil Twilight 7:14 AM MDT 7:09 PM MDT
Nautical Twilight 6:42 AM MDT 7:41 PM MDT
Astronomical Twilight 6:10 AM MDT 8:14 PM MDT
Moon 9:57 PM MDT (10/18) 12:22 PM MDT (10/18)
Length of Visible Light 11h 54m
Length of Day
10h 58m
Waning Gibbous, 78% of the Moon is Illuminated
Oct 18
Waning Gibbous
Oct 21
Last Quarter
Oct 27
New
Nov 4
First Quarter
Nov 12
Full

Hourly Weather History & Observations

Time (MDT) Temp. Windchill Dew Point Humidity Pressure Visibility Wind Dir Wind Speed Gust Speed Precip Events Conditions
12:51 AM 39.9 °F 36.7 °F 36.0 °F 86% 29.80 in 10.0 mi SE 4.6 mph - N/A   Partly Cloudy
1:51 AM 39.0 °F 35.7 °F 36.0 °F 89% 29.80 in 10.0 mi East 4.6 mph - N/A   Clear
2:51 AM 39.0 °F - 35.1 °F 86% 29.82 in 10.0 mi Calm Calm - N/A   Clear
3:51 AM 37.0 °F 31.6 °F 34.0 °F 89% 29.84 in 10.0 mi SE 6.9 mph - 0.00 in   Partly Cloudy
4:51 AM 36.0 °F 33.3 °F 32.0 °F 86% 29.87 in 10.0 mi ESE 3.5 mph - N/A   Clear
5:51 AM 35.1 °F 31.0 °F 30.0 °F 82% 29.90 in 10.0 mi ESE 4.6 mph - N/A   Clear
6:51 AM 35.1 °F 31.0 °F 30.9 °F 85% 29.92 in 10.0 mi East 4.6 mph - N/A   Scattered Clouds
7:51 AM 34.0 °F 29.8 °F 30.0 °F 85% 29.95 in 9.0 mi ESE 4.6 mph - 0.00 in Snow Light Snow
8:51 AM 35.1 °F 32.2 °F 30.9 °F 85% 29.97 in 10.0 mi SW 3.5 mph - 0.00 in   Clear
9:51 AM 42.1 °F - 34.0 °F 73% 29.98 in 10.0 mi Calm Calm - N/A   Mostly Cloudy
10:51 AM 46.9 °F - 33.1 °F 59% 29.99 in 10.0 mi NNE 3.5 mph - N/A   Scattered Clouds
11:51 AM 48.0 °F - 30.9 °F 52% 29.98 in 10.0 mi Variable 4.6 mph - N/A   Overcast
12:51 PM 48.9 °F - 30.0 °F 48% 29.96 in 10.0 mi Variable 3.5 mph - N/A   Overcast
1:51 PM 51.1 °F - 28.9 °F 43% 29.94 in 10.0 mi Variable 3.5 mph - N/A   Scattered Clouds
2:51 PM 51.1 °F - 28.9 °F 43% 29.94 in 10.0 mi West 4.6 mph - N/A   Overcast
3:51 PM 50.0 °F - 30.0 °F 46% 29.95 in 10.0 mi West 6.9 mph - N/A   Overcast
4:51 PM 50.0 °F - 30.0 °F 46% 29.96 in 10.0 mi SW 9.2 mph - N/A   Overcast
5:51 PM 48.9 °F - 30.0 °F 48% 29.97 in 10.0 mi SSW 5.8 mph - N/A   Overcast
6:51 PM 48.9 °F - 32.0 °F 52% 29.97 in 10.0 mi East 3.5 mph - N/A   Overcast
7:51 PM 45.0 °F 40.6 °F 33.1 °F 63% 29.99 in 10.0 mi East 8.1 mph - N/A   Scattered Clouds
8:51 PM 41.0 °F 38.0 °F 30.9 °F 67% 30.00 in 10.0 mi East 4.6 mph - N/A   Clear
9:51 PM 39.9 °F 37.8 °F 32.0 °F 73% 29.99 in 10.0 mi SE 3.5 mph - N/A   Mostly Cloudy
10:51 PM 39.0 °F 36.8 °F 30.9 °F 73% 29.97 in 10.0 mi WSW 3.5 mph - N/A   Mostly Cloudy
11:51 PM 37.9 °F 35.5 °F 32.0 °F 79% 29.97 in 10.0 mi ESE 3.5 mph - N/A   Overcast